This is the latest recevied weather packets stored in our database for station/object KX4O-13. If no packets are shown the sender has not sent any weather packets the latest 10 day(s).
| Time | Temp. | Humidity | Pressure | Rain* | Wind** | Luminosity | Snow |
|---|---|---|---|---|---|---|---|
| 1777905955 | 19.44° C | 44% | 1014.4 hPa | 0 mm | - | 684 W/m² | - |
| 1777905655 | 18.89° C | 44% | 1014.3 hPa | 0 mm | - | 670 W/m² | - |
| 1777905355 | 18.33° C | 45% | 1014.3 hPa | 0 mm | - | 657 W/m² | - |
| 1777905057 | 18.33° C | 44% | 1014.3 hPa | 0 mm | - | 640 W/m² | - |
| 1777904755 | 18.33° C | 44% | 1014.4 hPa | 0 mm | - | 635 W/m² | - |
| 1777904455 | 17.78° C | 49% | 1014.3 hPa | 0 mm | - | 622 W/m² | - |
| 1777904155 | 17.22° C | 48% | 1014.3 hPa | 0 mm | - | 610 W/m² | - |
| 1777903857 | 17.22° C | 49% | 1014.4 hPa | 0 mm | - | 601 W/m² | - |
| 1777903555 | 17.22° C | 50% | 1014.5 hPa | 0 mm | - | 585 W/m² | - |
| 1777903255 | 16.67° C | 53% | 1014.5 hPa | 0 mm | - | 568 W/m² | - |
| 1777902955 | 16.11° C | 53% | 1014.6 hPa | 0 mm | - | 552 W/m² | - |
| 1777902655 | 15.56° C | 51% | 1014.6 hPa | 0 mm | - | 533 W/m² | - |
| 1777902355 | 15.56° C | 54% | 1014.5 hPa | 0 mm | - | 515 W/m² | - |
| 1777902055 | 15.56° C | 58% | 1014.6 hPa | 0 mm | - | 496 W/m² | - |
| 1777901755 | 15° C | 61% | 1014.7 hPa | 0 mm | - | 466 W/m² | - |
| 1777901457 | 14.44° C | 61% | 1014.7 hPa | 0 mm | - | 364 W/m² | - |
| 1777901155 | 14.44° C | 61% | 1014.7 hPa | 0 mm | - | 364 W/m² | - |
| 1777900855 | 13.89° C | 61% | 1014.7 hPa | 0 mm | - | 364 W/m² | - |
| 1777900555 | 13.89° C | 61% | 1014.7 hPa | 0 mm | - | 364 W/m² | - |
| 1777900255 | 13.33° C | 61% | 1014.8 hPa | 0 mm | - | 357 W/m² | - |
| 1777899955 | 12.78° C | 62% | 1014.8 hPa | 0 mm | - | 343 W/m² | - |
| 1777899655 | 12.78° C | 59% | 1014.9 hPa | 0 mm | - | 327 W/m² | - |
| 1777899355 | 12.78° C | 61% | 1015 hPa | 0 mm | - | 315 W/m² | - |
| 1777899057 | 12.22° C | 62% | 1014.9 hPa | 0 mm | - | 295 W/m² | - |
| 1777898755 | 11.67° C | 62% | 1014.9 hPa | 0 mm | - | 292 W/m² | - |
* Rain latest hour (hover to see other rain measurements)
** Current wind speed in m/s (hover to see current wind gust speed)